Seward, AK

12:33 AM AKDT on August 24, 2017 (GMT -0800)
Seward

Weather History for PAWD - March, 2013

Change the Weather History Date:

Monday, March 25, 2013

  Actual Average Record
Temperature  
Mean Temperature 23 °F -  
Max Temperature 28 °F 39 °F 70 °F (2003)
Min Temperature 17 °F 28 °F 10 °F (1962)
Degree Days  
Heating Degree Days 42    
Moisture  
Dew Point 16 °F    
Average Humidity 67    
Maximum Humidity 80    
Minimum Humidity 53    
Precipitation  
Precipitation 0.00 in - - ()
Sea Level Pressure  
Sea Level Pressure 29.40 in    
Wind  
Wind Speed 24 mph (NNW)    
Max Wind Speed 31 mph    
Max Gust Speed 45 mph    
Visibility 3 miles    
Events Snow    
Averages and records for this station are not official NWS values.
T = Trace of Precipitation, MM = Missing Value Source: NWS Daily Summary

Daily Weather History Graph

Daily Weather History Graph

Search for Another Location

Airport or City:

Trip Planner

Search our weather history database for the weather conditions in past years. The results will help you decide how hot, cold, wet, or windy it might be!

Date:

Astronomy

Mar. 25, 2013 Rise Set
Actual Time 7:42 AM AKDT 8:25 PM AKDT
Civil Twilight 7:00 AM AKDT 9:08 PM AKDT
Nautical Twilight 6:09 AM AKDT 9:59 PM AKDT
Astronomical Twilight 5:11 AM AKDT 10:58 PM AKDT
Moon 6:57 PM AKDT (3/25) 6:49 AM AKDT (3/25)
Length of Visible Light 14h 07m
Length of Day
12h 43m
Waxing Gibbous, 97% of the Moon is Illuminated
Mar 25
Waxing Gibbous
Mar 27
Full
Apr 2
Last Quarter
Apr 10
New
Apr 18
First Quarter

Hourly Weather History & Observations

Time (AKDT) Temp. Windchill Dew Point Humidity Pressure Visibility Wind Dir Wind Speed Gust Speed Precip Events Conditions
12:49 AM 26.6 °F 11.4 °F 19.4 °F 74% 29.46 in 1.8 mi NNE 25.3 mph 38.0 mph 0.00 in Snow Light Snow
12:53 AM 27.0 °F 10.5 °F 19.9 °F 75% 29.47 in 1.8 mi NNE 31.1 mph 40.3 mph 0.00 in Snow Light Snow
1:07 AM 26.6 °F 12.0 °F 19.4 °F 74% 29.46 in 2.5 mi NNE 23.0 mph 36.8 mph 0.00 in Snow Light Snow
1:18 AM 26.6 °F 11.7 °F 19.4 °F 74% 29.45 in 1.8 mi NNE 24.2 mph 38.0 mph 0.00 in Snow Light Snow
1:30 AM 26.6 °F 12.0 °F 19.4 °F 74% 29.45 in 2.0 mi NNE 23.0 mph 35.7 mph 0.00 in Snow Light Snow
1:38 AM 28.4 °F 13.0 °F 19.4 °F 69% 29.44 in 1.5 mi North 28.8 mph 38.0 mph 0.00 in Snow Light Snow
1:53 AM 28.0 °F 12.3 °F 19.9 °F 72% 29.44 in 1.5 mi North 29.9 mph 39.1 mph 0.00 in Snow Light Snow
2:09 AM 28.4 °F 13.5 °F 19.4 °F 69% 29.44 in 2.0 mi North 26.5 mph 38.0 mph 0.00 in Snow Light Snow
2:22 AM 28.4 °F 13.3 °F 19.4 °F 69% 29.43 in 1.8 mi North 27.6 mph 42.6 mph 0.00 in Snow Light Snow
2:53 AM 28.0 °F 12.8 °F 19.9 °F 72% 29.42 in 1.2 mi North 27.6 mph 43.7 mph 0.00 in Snow Light Snow
3:31 AM 28.4 °F 12.7 °F 19.4 °F 69% 29.42 in 1.5 mi North 29.9 mph 39.1 mph 0.00 in Snow Light Snow
3:50 AM 28.4 °F 13.0 °F 19.4 °F 69% 29.42 in 1.0 mi North 28.8 mph 41.4 mph 0.00 in Snow Light Snow
3:53 AM 28.0 °F 12.5 °F 19.9 °F 72% 29.42 in 0.8 mi North 28.8 mph 39.1 mph 0.00 in Snow Light Snow
4:00 AM 28.4 °F 13.0 °F 19.4 °F 69% 29.42 in 1.0 mi North 28.8 mph 36.8 mph 0.00 in Snow Light Snow
4:18 AM 28.4 °F 12.7 °F 19.4 °F 69% 29.41 in 1.2 mi North 29.9 mph 40.3 mph 0.00 in Snow Light Snow
4:53 AM 28.0 °F 12.0 °F 19.9 °F 72% 29.41 in 1.5 mi North 31.1 mph 44.9 mph 0.00 in Snow Light Snow
5:15 AM 26.6 °F 11.1 °F 19.4 °F 74% 29.41 in 1.0 mi NNW 26.5 mph 39.1 mph 0.00 in Snow Light Snow
5:24 AM 28.4 °F 13.0 °F 19.4 °F 69% 29.40 in 0.8 mi NNW 28.8 mph 39.1 mph 0.00 in Snow Light Snow
5:34 AM 28.4 °F 13.8 °F 19.4 °F 69% 29.40 in 1.0 mi North 25.3 mph 34.5 mph 0.00 in Snow Light Snow
5:43 AM 28.4 °F 14.1 °F 19.4 °F 69% 29.40 in 1.2 mi NNW 24.2 mph 36.8 mph 0.00 in Snow Light Snow
5:53 AM 28.0 °F 13.3 °F 19.9 °F 72% 29.40 in 1.0 mi NNW 25.3 mph 36.8 mph 0.00 in Snow Light Snow
6:08 AM 26.6 °F 12.4 °F 19.4 °F 74% 29.40 in 1.0 mi NNW 21.9 mph 32.2 mph 0.00 in Snow Light Snow
6:28 AM 28.4 °F 14.4 °F 19.4 °F 69% 29.39 in 1.2 mi NNW 23.0 mph 32.2 mph 0.00 in Snow Light Snow
6:53 AM 27.0 °F 13.9 °F 19.9 °F 75% 29.38 in 1.5 mi North 18.4 mph 28.8 mph 0.00 in Snow Light Snow
7:28 AM 26.6 °F 12.4 °F 19.4 °F 74% 29.37 in 2.0 mi North 21.9 mph 32.2 mph 0.00 in Snow Light Snow
7:34 AM 26.6 °F 13.1 °F 19.4 °F 74% 29.37 in 1.8 mi North 19.6 mph 32.2 mph 0.00 in Snow Light Snow
7:53 AM 27.0 °F 13.5 °F 19.9 °F 75% 29.37 in 1.2 mi North 19.6 mph 34.5 mph 0.00 in Snow Light Snow
7:56 AM 26.6 °F 13.1 °F 21.2 °F 80% 29.37 in 1.0 mi North 19.6 mph 26.5 mph 0.00 in Snow Light Snow
8:24 AM 26.6 °F 12.7 °F 19.4 °F 74% 29.36 in 0.8 mi NNW 20.7 mph 27.6 mph 0.00 in Snow Light Snow
8:53 AM 27.0 °F 13.5 °F 19.9 °F 75% 29.35 in 0.8 mi North 19.6 mph 27.6 mph 0.00 in Snow Light Snow
9:53 AM 26.1 °F 11.6 °F 19.0 °F 75% 29.34 in 0.8 mi NNW 21.9 mph 28.8 mph 0.00 in Snow Light Snow
10:27 AM 26.6 °F 13.4 °F 17.6 °F 69% 29.32 in 1.2 mi North 18.4 mph 25.3 mph 0.00 in Snow Light Snow
10:43 AM 26.6 °F 13.8 °F 17.6 °F 69% 29.32 in 3.0 mi North 17.3 mph 23.0 mph 0.00 in Snow Light Snow
10:53 AM 26.1 °F 12.7 °F 16.0 °F 66% 29.32 in 2.5 mi North 18.4 mph 28.8 mph 0.00 in Snow Light Snow
10:59 AM 26.6 °F 13.1 °F 17.6 °F 69% 29.32 in 1.8 mi North 19.6 mph 28.8 mph 0.00 in Snow Light Snow
11:11 AM 26.6 °F 12.4 °F 15.8 °F 64% 29.32 in 1.5 mi NNW 21.9 mph 39.1 mph 0.00 in Snow Light Snow
11:18 AM 26.6 °F 12.4 °F 15.8 °F 64% 29.32 in 1.5 mi NNW 21.9 mph 32.2 mph 0.00 in Snow Light Snow
11:32 AM 24.8 °F 10.3 °F 17.6 °F 74% 29.32 in 1.0 mi NNW 20.7 mph 29.9 mph 0.00 in Snow Light Snow
11:44 AM 24.8 °F 9.6 °F 15.8 °F 69% 29.32 in 1.2 mi NNW 23.0 mph 32.2 mph 0.00 in Snow Light Snow
11:53 AM 24.1 °F 10.1 °F 17.1 °F 75% 29.32 in 1.0 mi NNW 18.4 mph 31.1 mph 0.00 in Snow Light Snow
12:05 PM 24.8 °F 10.3 °F 15.8 °F 69% 29.33 in 1.5 mi North 20.7 mph 32.2 mph 0.00 in Snow Light Snow
12:09 PM 24.8 °F 10.3 °F 15.8 °F 69% 29.33 in 2.0 mi North 20.7 mph 31.1 mph 0.00 in Snow Light Snow
12:40 PM 24.8 °F 10.3 °F 15.8 °F 69% 29.34 in 1.5 mi NNW 20.7 mph 34.5 mph 0.00 in Snow Light Snow
12:53 PM 25.0 °F 12.2 °F 12.9 °F 60% 29.34 in 2.5 mi NW 16.1 mph 33.4 mph 0.00 in Snow Light Snow
1:09 PM 24.8 °F 9.3 °F 12.2 °F 59% 29.34 in 1.8 mi NNW 24.2 mph 39.1 mph 0.00 in   Overcast
1:22 PM 24.8 °F 10.0 °F 12.2 °F 59% 29.34 in 3.0 mi NNW 21.9 mph 34.5 mph 0.00 in   Overcast
1:53 PM 25.0 °F 10.9 °F 12.0 °F 58% 29.35 in 4.0 mi NW 19.6 mph 33.4 mph 0.00 in   Overcast
2:36 PM 24.8 °F 9.6 °F 10.4 °F 54% 29.36 in 2.5 mi NW 23.0 mph 38.0 mph 0.00 in Snow Light Snow
2:53 PM 24.1 °F 8.0 °F 10.9 °F 57% 29.37 in 2.5 mi NW 25.3 mph 40.3 mph 0.00 in Snow Light Snow
3:32 PM 24.8 °F 8.7 °F 10.4 °F 54% 29.38 in 4.0 mi NNW 26.5 mph 38.0 mph 0.00 in Snow Light Snow
3:53 PM 24.1 °F 11.0 °F 10.0 °F 55% 29.38 in 10.0 mi NW 16.1 mph 27.6 mph 0.00 in   Overcast
4:53 PM 24.1 °F 10.1 °F 9.0 °F 53% 29.41 in 10.0 mi NW 18.4 mph 31.1 mph N/A   Overcast
5:53 PM 21.9 °F 8.7 °F 8.1 °F 55% 29.42 in 10.0 mi NW 15.0 mph 27.6 mph N/A   Overcast
6:53 PM 21.0 °F 5.7 °F 7.0 °F 55% 29.44 in 10.0 mi NW 19.6 mph 34.5 mph N/A   Overcast
7:53 PM 19.9 °F 4.8 °F 6.1 °F 55% 29.47 in 10.0 mi NNW 18.4 mph 35.7 mph 0.00 in   Overcast
8:53 PM 19.0 °F 2.0 °F 5.0 °F 54% 29.49 in 10.0 mi NNW 23.0 mph 36.8 mph N/A   Mostly Cloudy
9:53 PM 19.0 °F 2.4 °F 5.0 °F 54% 29.52 in 10.0 mi NW 21.9 mph 34.5 mph N/A   Overcast
10:53 PM 18.0 °F -1.1 °F 6.1 °F 60% 29.56 in 9.0 mi NW 28.8 mph 39.1 mph N/A   Overcast
11:53 PM 17.1 °F -0.3 °F 3.9 °F 56% 29.61 in 10.0 mi NW 21.9 mph 32.2 mph N/A   Overcast